SCP
0 0 0 0 0 0 0 0 0 0 0 0 0 0 0 0 0 0 0 0 0 0 0 0 0 0 0 0 0 0 0 0 0 0 0 0 0 0 0 0 0 0 0
0 0 0 0 0 0 0 0 0 0 0 0 0 0 0 0 0 0 0 0 0 0 0 0 0 0 0 0 0 0 0 0 0 0 0 0 0 0 0 0 0 0 0
0 0 0 0 0 0 0 0 0 0 0 0 0 0 0 0 0 0 0 0 0 0 0 0 0 0 0 0 0 0 0 0 0 0 0 0 0 0 0 0 0 0 0
0 0 0 0 0 0 0 0 0 0 0 0 0 0 0 0 0 0 0 0 0 0 0 0 0 0 0 0 0 0 0 0 0 0 0 0 0 0 0 0 0 0 0
0 0 0 0 0 0 0 0 0 0 0 0 0 0 0 0 0 0 0 0 0 0 0 0 0 0 0 0 0 0 0 0 0 0 0 0 0 0 0 0 0 0 0
0 0 0 0 0 0 0 0 0 0 0 0 0 0 0 0 0 0 0 0 0 0 0 0 0 0 0 0 0 0 0 0 0 0 0 0 0 0 0 0 0 0 0
0 0 0 0 0 0 0 0 0 0 0 0 0 0 0 0 0 0 0 0 0 0 0 0 0 0 0 0 0 0 0 0 0 0 0 0 0 0 0 0 0 0 0
0 0 0 0 0 0 0 0 0 0 0 0 0 0 0 0 0 0 0 0 0 0 0 0 0 0 0 0 0 0 0 0 0 0 0 0 0 0 0 0 0 0 0
0 0 0 0 0 0 0 0 0 0 0 0 0 0 0 0 0 0 0 0 0 0 0 0 0 0 0 0 0 0 0 0 0 0 0 0 0 0 0 0 0 0 0
0 0 0 0 0 0 0 0 0 0 0 0 0 0 0 0 0 0 0 0 0 0 0 0 0 0 0 0 0 0 0 0 0 0 0 0 0 0 0 0 0 0 0
0 0 0 0 0 0 0 0 0 0 0 0 0 0 0 0 0 0 0 0 0 0 0 0 0 0 0 0 0 0 0 0 0 0 0 0 0 0 0 0 0 0 0
0 0 0 0 0 0 0 0 0 0 0 0 0 0 0 0 0 0 0 0 0 0 0 0 0 0 0 0 0 0 0 0 0 0 0 0 0 0 0 0 0 0 0
0 0 0 0 0 0 0 0 0 0 0 0 0 0 0 0 0 0 0 0 0 0 0 0 0 0 0 0 0 0 0 0 0 0 0 0 0 0 0 0 0 0 0
0 0 0 0 0 0 0 0 0 0 0 0 0 0 0 0 0 0 0 0 0 0 0 0 0 0 0 0 0 0 0 0 0 0 0 0 0 0 0 0 0 0 0
0 0 0 0 0 0 0 0 0 0 0 0 0 0 0 0 0 0 0 0 0 0 0 0 0 0 0 0 0 0 0 0 0 0 0 0 0 0 0 0 0 0 0
0 0 0 0 0 0 0 0 0 0 0 0 0 0 0 0 0 0 0 0 0 0 0 0 0 0 0 0 0 0 0 0 0 0 0 0 0 0 0 0 0 0 0
0 0 0 0 0 0 0 0 0 0 0 0 0 0 0 0 0 0 0 0 0 0 0 0 0 0 0 0 0 0 0 0 0 0 0 0 0 0 0 0 0 0 0
0 0 0 0 0 0 0 0 0 0 0 0 0 0 0 0 0 0 0 0 0 0 0 0 0 0 0 0 0 0 0 0 0 0 0 0 0 0 0 0 0 0 0
0 0 0 0 0 0 0 0 0 0 0 0 0 0 0 0 0 0 0 0 0 0 0 0 0 0 0 0 0 0 0 0 0 0 0 0 0 0 0 0 0 0 0
0 0 0 0 0 0 0 0 0 0 0 0 0 0 0 0 0 0 0 0 0 0 0 0 0 0 0 0 0 0 0 0 0 0 0 0 0 0 0 0 0 0 0
0 0 0 0 0 0 0 0 0 0 0 0 0 0 0 0 0 0 0 0 0 0 0 0 0 0 0 0 0 0 0 0 0 0 0 0 0 0 0 0 0 0 0
0 0 0 0 0 0 0 0 0 0 0 0 0 0 0 0 0 0 0 0 0 0 0 0 0 0 0 0 0 0 0 0 0 0 0 0 0 0 0 0 0 0 0
0 0 0 0 0 0 0 0 0 0 0 0 0 0 0 0 0 0 0 0 0 0 0 0 0 0 0 0 0 0 0 0 0 0 0 0 0 0 0 0 0 0 0
0 0 0 0 0 0 0 0 0 0 0 0 0 0 0 0 0 0 0 0 0 0 0 0 0 0 0 0 0 0 0 0 0 0 0 0 0 0 0 0 0 0 0
0 0 0 0 0 0 0 0 0 0 0 0 0 0 0 0 0 0 0 0 0 0 0 0 0 0 0 0 0 0 0 0 0 0 0 0 0 0 0 0 0 0 0
0 0 0 0 0 0 0 0 0 0 0 0 0 0 0 0 0 0 0 0 0 0 0 0 0 0 0 0 0 0 0 0 0 0 0 0 0 0 0 0 0 0 0
Wind_Speed_500mb
76 70 66 64 62 65 63 61 58 54 52 50 47 45 44 39 39 42 42 44 48 49 41 42 41 41 42 45 44 39 37 36 38 49 52 41 52 52 46 50 46 45 41
66 65 61 54 52 53 54 54 52 52 51 49 45 43 42 41 39 43 42 42 46 30 40 45 34 33 36 33 31 32 36 28 34 32 35 44 41 37 36 35 36 36 36
64 61 55 52 52 50 48 48 49 48 47 44 43 40 40 39 42 40 37 42 43 39 34 36 42 35 35 39 40 35 27 29 29 28 35 34 27 26 26 25 23 30 42
50 52 52 49 46 45 44 44 43 41 41 41 41 39 37 40 37 41 39 33 35 34 39 49 40 31 32 34 29 24 25 28 21 26 22 14 17 15 17 17 26 32 28
39 41 42 42 42 41 39 37 36 35 35 34 33 32 30 29 31 28 33 33 36 37 28 18 22 27 31 24 22 23 23 22 17 13 12 10 7 9 17 29 30 27 40
41 42 41 39 35 31 28 27 26 25 24 23 22 24 25 25 25 26 31 33 26 21 19 19 20 19 8 10 9 10 13 11 11 8 4 8 13 16 27 29 35 42 40
38 36 34 32 30 29 27 25 22 21 20 20 19 20 18 16 18 19 17 16 18 18 13 8 6 5 6 18 19 15 12 10 9 8 8 9 18 21 31 36 35 36 41
40 38 35 32 30 28 26 23 20 20 20 19 18 17 17 16 14 13 11 8 9 10 8 11 7 2 4 12 16 14 7 4 5 7 12 19 29 36 29 33 34 40 45
41 36 32 29 27 24 23 21 20 19 19 19 21 21 17 15 17 18 15 12 12 12 10 7 6 3 9 8 6 6 5 7 6 9 23 34 28 33 38 41 42 45 50
41 37 33 31 29 27 24 21 22 24 24 23 24 20 19 23 23 19 17 11 9 9 6 6 6 6 2 1 1 5 10 12 17 24 30 29 32 41 43 46 45 46 45
43 40 37 36 34 30 27 28 29 30 28 26 24 24 20 19 18 16 13 10 9 7 6 7 5 7 5 2 7 12 18 23 26 30 36 43 47 44 44 45 45 45 47
48 44 43 42 39 35 35 36 35 31 29 27 24 25 22 16 14 12 10 9 7 6 5 4 4 5 6 8 14 19 22 28 36 43 44 44 45 44 45 44 43 43 45
55 52 50 47 44 44 46 45 41 38 34 31 25 21 20 17 13 11 9 7 6 2 4 6 8 9 10 13 15 23 32 38 41 42 44 45 47 48 47 47 45 46 47
58 57 56 53 53 51 46 42 44 44 41 38 34 26 22 18 14 11 9 7 2 6 6 7 7 11 16 22 25 28 31 33 37 39 41 43 44 46 45 47 49 50 53
62 61 60 58 57 56 52 48 46 43 35 36 36 31 27 24 20 16 14 14 13 13 10 10 9 12 17 19 21 25 27 30 34 38 40 42 43 46 47 49 52 56 56
68 69 67 65 65 62 61 61 52 42 41 39 35 29 32 26 24 22 18 16 13 8 4 5 5 10 15 19 23 27 31 33 34 36 39 42 44 45 46 47 50 51 54
73 76 71 72 70 68 64 60 64 58 47 40 36 32 31 28 26 24 18 15 13 8 2 2 8 14 19 23 27 29 33 36 40 43 45 46 47 48 50 51 49 50 51
74 71 74 74 71 68 63 58 50 54 54 50 44 37 32 30 27 23 20 15 10 5 4 9 12 15 19 23 26 28 31 34 36 40 42 44 46 48 48 48 48 48 49
77 77 75 74 70 65 61 58 54 51 45 42 42 40 38 33 29 23 17 11 6 4 3 7 11 14 17 19 22 26 29 32 34 36 38 40 41 42 42 42 43 44 45
79 75 77 76 74 72 67 65 61 52 46 44 43 41 37 33 27 21 17 11 6 4 5 8 11 13 16 19 22 23 26 29 32 34 37 40 42 42 42 43 41 44 44
80 81 80 78 77 71 69 66 56 50 52 51 47 40 33 24 21 18 14 9 7 9 11 13 16 17 18 21 25 29 31 34 35 36 39 41 42 42 43 43 43 42 42
86 87 84 81 74 73 69 60 55 56 53 48 44 38 32 27 21 16 13 10 11 12 14 15 19 23 27 30 33 36 40 43 45 44 44 45 45 45 46 44 42 40 40
85 86 81 76 74 74 69 62 60 55 50 45 41 35 31 25 18 12 10 9 10 14 19 23 27 30 34 37 39 42 44 46 49 50 50 49 48 48 46 44 44 43 39
84 83 81 80 81 74 69 68 61 54 48 42 36 31 26 19 11 6 6 10 15 18 22 26 30 34 39 44 47 49 50 50 49 49 50 51 48 46 46 44 42 41 42
84 84 85 83 79 75 70 64 59 52 43 36 31 24 16 10 5 4 9 14 20 24 29 33 37 42 45 47 48 50 50 49 47 48 50 50 48 46 45 42 40 37 37
86 85 84 82 78 73 68 63 55 47 41 35 27 20 13 6 1 7 14 19 23 28 34 39 43 47 49 49 48 48 48 44 44 46 47 47 46 43 43 41 39 38 37
Wind_Direction_500mb
233 239 243 246 243 242 247 251 253 255 255 257 258 258 257 257 255 259 265 267 273 274 281 285 286 291 300 301 298 300 294 301 296 290 277 293 299 283 258 251 249 250 239
229 233 238 240 239 240 243 246 248 250 251 253 255 254 252 255 256 256 259 265 273 276 276 282 292 284 289 286 284 289 297 301 288 290 276 289 294 281 274 260 254 245 243
226 230 233 236 235 236 239 241 243 246 249 249 248 247 248 247 244 254 256 259 279 278 273 281 279 282 280 291 300 296 290 286 288 285 281 278 290 293 266 252 245 256 267
222 221 224 227 229 231 233 237 241 245 247 248 246 242 243 243 247 249 251 254 259 274 276 278 276 272 275 289 283 287 289 286 273 289 284 288 286 296 271 264 270 284 284
211 212 214 215 218 221 224 228 232 238 241 242 242 237 235 229 232 231 235 247 256 266 269 265 282 281 277 279 281 290 291 279 272 276 287 292 280 270 288 293 293 279 291
205 204 202 202 203 205 209 216 222 227 228 230 230 232 230 231 234 241 245 253 258 259 259 261 265 283 300 313 318 333 332 304 299 292 255 289 298 273 303 289 291 291 297
188 190 190 190 193 197 202 207 212 220 227 227 225 225 221 221 225 229 230 243 256 253 237 209 205 171 55 13 352 332 314 289 279 224 243 262 289 304 305 298 286 280 291
185 189 191 194 198 199 202 205 210 218 219 212 203 196 189 192 192 168 148 132 137 137 165 172 174 201 5 337 325 306 276 251 213 251 281 305 310 309 306 305 306 299 296
194 197 201 205 207 208 209 210 209 203 197 195 186 174 160 147 131 137 130 130 140 152 175 198 237 282 299 301 331 287 249 200 200 284 316 316 309 303 299 299 299 304 303
203 204 207 210 212 214 213 208 198 191 184 177 166 149 132 135 136 138 153 170 206 238 273 258 278 292 347 42 46 192 193 232 271 288 300 296 296 301 296 295 293 297 296
205 208 209 210 210 208 204 195 193 183 175 166 157 148 143 146 157 171 186 209 246 253 246 246 242 295 307 254 231 234 241 252 263 281 296 299 298 300 297 294 295 295 295
207 207 208 206 205 200 197 189 183 177 171 164 158 156 156 166 174 182 196 224 242 260 256 270 252 261 228 241 249 249 258 274 286 291 296 297 298 300 302 302 301 299 297
208 206 205 202 198 194 193 188 179 172 170 166 168 161 155 163 170 183 185 211 209 265 251 231 237 230 239 257 272 283 290 295 300 305 309 311 312 311 311 309 305 303 302
209 202 200 198 194 189 185 179 178 173 173 167 163 165 168 172 178 179 174 168 170 216 225 220 244 275 285 290 292 294 300 306 311 314 316 316 315 313 313 310 310 310 310
205 202 195 194 191 183 177 174 176 173 177 173 165 171 172 173 176 180 187 184 183 197 222 248 262 280 291 297 303 310 315 314 314 315 314 313 314 314 316 316 316 316 316
201 198 194 190 186 183 180 173 172 179 171 166 163 168 171 173 171 177 177 172 174 189 219 278 309 320 319 320 323 322 323 324 324 321 322 322 322 321 319 317 315 316 316
201 195 192 189 186 184 183 183 173 168 168 163 161 161 165 167 170 170 164 159 155 157 173 328 333 334 329 326 328 328 325 324 324 324 323 322 322 322 322 323 322 320 319
196 195 191 187 186 184 183 181 178 173 160 160 162 166 168 165 164 160 156 156 153 138 2 349 341 338 336 331 327 325 325 323 321 320 321 323 323 322 324 323 323 321 320
189 188 188 186 184 181 176 170 171 162 158 164 168 166 164 164 163 162 160 158 152 111 41 357 349 341 333 329 329 329 328 326 327 329 328 325 324 325 324 323 324 322 320
186 185 185 182 178 176 173 172 168 161 160 167 167 166 167 168 167 162 156 156 130 93 45 13 0 352 350 345 339 336 335 333 330 328 327 327 327 326 324 325 327 323 321
182 182 182 179 177 174 174 173 164 159 165 167 167 167 168 167 169 164 151 135 94 56 35 17 5 355 347 341 337 332 328 323 324 325 324 323 325 326 328 328 323 318 317
183 181 178 179 175 173 172 166 161 165 169 171 172 171 170 171 169 154 133 105 70 40 16 0 353 346 341 337 333 329 327 326 325 325 323 324 326 325 323 322 321 319 318
182 179 175 173 173 171 166 162 164 168 171 172 173 172 168 166 159 137 100 66 31 6 355 346 339 336 331 328 326 324 323 322 319 319 320 321 321 320 319 320 320 318 317
181 179 175 173 172 169 166 165 168 172 173 173 170 168 165 156 139 107 47 13 356 346 338 332 329 328 326 324 323 322 319 317 316 316 316 317 318 317 316 317 317 317 316
182 178 176 174 170 168 168 169 169 170 170 169 168 164 156 148 127 36 354 343 337 330 326 324 322 321 320 318 318 317 315 315 314 313 313 313 313 313 312 314 316 317 315
180 178 174 172 170 169 169 169 167 167 169 170 169 166 164 169 279 330 329 326 323 320 318 317 317 316 315 314 314 314 313 312 310 309 308 309 310 310 309 309 311 314 314
Wind_Speed_850mb
76 70 66 64 62 65 63 61 58 54 52 50 47 45 44 39 39 42 42 44 48 49 41 42 41 41 42 45 44 39 37 36 38 49 52 41 52 52 46 50 46 45 41
66 65 61 54 52 53 54 54 52 52 51 49 45 43 42 41 39 43 42 42 46 30 40 45 34 33 36 33 31 32 36 28 34 32 35 44 41 37 36 35 36 36 36
64 61 55 52 52 50 48 48 49 48 47 44 43 40 40 39 42 40 37 42 43 39 34 36 42 35 35 39 40 35 27 29 29 28 35 34 27 26 26 25 23 30 42
50 52 52 49 46 45 44 44 43 41 41 41 41 39 37 40 37 41 39 33 35 34 39 49 40 31 32 34 29 24 25 28 21 26 22 14 17 15 17 17 26 32 28
39 41 42 42 42 41 39 37 36 35 35 34 33 32 30 29 31 28 33 33 36 37 28 18 22 27 31 24 22 23 23 22 17 13 12 10 7 9 17 29 30 27 40
41 42 41 39 35 31 28 27 26 25 24 23 22 24 25 25 25 26 31 33 26 21 19 19 20 19 8 10 9 10 13 11 11 8 4 8 13 16 27 29 35 42 40
38 36 34 32 30 29 27 25 22 21 20 20 19 20 18 16 18 19 17 16 18 18 13 8 6 5 6 18 19 15 12 10 9 8 8 9 18 21 31 36 35 36 41
40 38 35 32 30 28 26 23 20 20 20 19 18 17 17 16 14 13 11 8 9 10 8 11 7 2 4 12 16 14 7 4 5 7 12 19 29 36 29 33 34 40 45
41 36 32 29 27 24 23 21 20 19 19 19 21 21 17 15 17 18 15 12 12 12 10 7 6 3 9 8 6 6 5 7 6 9 23 34 28 33 38 41 42 45 50
41 37 33 31 29 27 24 21 22 24 24 23 24 20 19 23 23 19 17 11 9 9 6 6 6 6 2 1 1 5 10 12 17 24 30 29 32 41 43 46 45 46 45
43 40 37 36 34 30 27 28 29 30 28 26 24 24 20 19 18 16 13 10 9 7 6 7 5 7 5 2 7 12 18 23 26 30 36 43 47 44 44 45 45 45 47
48 44 43 42 39 35 35 36 35 31 29 27 24 25 22 16 14 12 10 9 7 6 5 4 4 5 6 8 14 19 22 28 36 43 44 44 45 44 45 44 43 43 45
55 52 50 47 44 44 46 45 41 38 34 31 25 21 20 17 13 11 9 7 6 2 4 6 8 9 10 13 15 23 32 38 41 42 44 45 47 48 47 47 45 46 47
58 57 56 53 53 51 46 42 44 44 41 38 34 26 22 18 14 11 9 7 2 6 6 7 7 11 16 22 25 28 31 33 37 39 41 43 44 46 45 47 49 50 53
62 61 60 58 57 56 52 48 46 43 35 36 36 31 27 24 20 16 14 14 13 13 10 10 9 12 17 19 21 25 27 30 34 38 40 42 43 46 47 49 52 56 56
68 69 67 65 65 62 61 61 52 42 41 39 35 29 32 26 24 22 18 16 13 8 4 5 5 10 15 19 23 27 31 33 34 36 39 42 44 45 46 47 50 51 54
73 76 71 72 70 68 64 60 64 58 47 40 36 32 31 28 26 24 18 15 13 8 2 2 8 14 19 23 27 29 33 36 40 43 45 46 47 48 50 51 49 50 51
74 71 74 74 71 68 63 58 50 54 54 50 44 37 32 30 27 23 20 15 10 5 4 9 12 15 19 23 26 28 31 34 36 40 42 44 46 48 48 48 48 48 49
77 77 75 74 70 65 61 58 54 51 45 42 42 40 38 33 29 23 17 11 6 4 3 7 11 14 17 19 22 26 29 32 34 36 38 40 41 42 42 42 43 44 45
79 75 77 76 74 72 67 65 61 52 46 44 43 41 37 33 27 21 17 11 6 4 5 8 11 13 16 19 22 23 26 29 32 34 37 40 42 42 42 43 41 44 44
80 81 80 78 77 71 69 66 56 50 52 51 47 40 33 24 21 18 14 9 7 9 11 13 16 17 18 21 25 29 31 34 35 36 39 41 42 42 43 43 43 42 42
86 87 84 81 74 73 69 60 55 56 53 48 44 38 32 27 21 16 13 10 11 12 14 15 19 23 27 30 33 36 40 43 45 44 44 45 45 45 46 44 42 40 40
85 86 81 76 74 74 69 62 60 55 50 45 41 35 31 25 18 12 10 9 10 14 19 23 27 30 34 37 39 42 44 46 49 50 50 49 48 48 46 44 44 43 39
84 83 81 80 81 74 69 68 61 54 48 42 36 31 26 19 11 6 6 10 15 18 22 26 30 34 39 44 47 49 50 50 49 49 50 51 48 46 46 44 42 41 42
84 84 85 83 79 75 70 64 59 52 43 36 31 24 16 10 5 4 9 14 20 24 29 33 37 42 45 47 48 50 50 49 47 48 50 50 48 46 45 42 40 37 37
86 85 84 82 78 73 68 63 55 47 41 35 27 20 13 6 1 7 14 19 23 28 34 39 43 47 49 49 48 48 48 44 44 46 47 47 46 43 43 41 39 38 37
Wind_Direction_850mb
233 239 243 246 243 242 247 251 253 255 255 257 258 258 257 257 255 259 265 267 273 274 281 285 286 291 300 301 298 300 294 301 296 290 277 293 299 283 258 251 249 250 239
229 233 238 240 239 240 243 246 248 250 251 253 255 254 252 255 256 256 259 265 273 276 276 282 292 284 289 286 284 289 297 301 288 290 276 289 294 281 274 260 254 245 243
226 230 233 236 235 236 239 241 243 246 249 249 248 247 248 247 244 254 256 259 279 278 273 281 279 282 280 291 300 296 290 286 288 285 281 278 290 293 266 252 245 256 267
222 221 224 227 229 231 233 237 241 245 247 248 246 242 243 243 247 249 251 254 259 274 276 278 276 272 275 289 283 287 289 286 273 289 284 288 286 296 271 264 270 284 284
211 212 214 215 218 221 224 228 232 238 241 242 242 237 235 229 232 231 235 247 256 266 269 265 282 281 277 279 281 290 291 279 272 276 287 292 280 270 288 293 293 279 291
205 204 202 202 203 205 209 216 222 227 228 230 230 232 230 231 234 241 245 253 258 259 259 261 265 283 300 313 318 333 332 304 299 292 255 289 298 273 303 289 291 291 297
188 190 190 190 193 197 202 207 212 220 227 227 225 225 221 221 225 229 230 243 256 253 237 209 205 171 55 13 352 332 314 289 279 224 243 262 289 304 305 298 286 280 291
185 189 191 194 198 199 202 205 210 218 219 212 203 196 189 192 192 168 148 132 137 137 165 172 174 201 5 337 325 306 276 251 213 251 281 305 310 309 306 305 306 299 296
194 197 201 205 207 208 209 210 209 203 197 195 186 174 160 147 131 137 130 130 140 152 175 198 237 282 299 301 331 287 249 200 200 284 316 316 309 303 299 299 299 304 303
203 204 207 210 212 214 213 208 198 191 184 177 166 149 132 135 136 138 153 170 206 238 273 258 278 292 347 42 46 192 193 232 271 288 300 296 296 301 296 295 293 297 296
205 208 209 210 210 208 204 195 193 183 175 166 157 148 143 146 157 171 186 209 246 253 246 246 242 295 307 254 231 234 241 252 263 281 296 299 298 300 297 294 295 295 295
207 207 208 206 205 200 197 189 183 177 171 164 158 156 156 166 174 182 196 224 242 260 256 270 252 261 228 241 249 249 258 274 286 291 296 297 298 300 302 302 301 299 297
208 206 205 202 198 194 193 188 179 172 170 166 168 161 155 163 170 183 185 211 209 265 251 231 237 230 239 257 272 283 290 295 300 305 309 311 312 311 311 309 305 303 302
209 202 200 198 194 189 185 179 178 173 173 167 163 165 168 172 178 179 174 168 170 216 225 220 244 275 285 290 292 294 300 306 311 314 316 316 315 313 313 310 310 310 310
205 202 195 194 191 183 177 174 176 173 177 173 165 171 172 173 176 180 187 184 183 197 222 248 262 280 291 297 303 310 315 314 314 315 314 313 314 314 316 316 316 316 316
201 198 194 190 186 183 180 173 172 179 171 166 163 168 171 173 171 177 177 172 174 189 219 278 309 320 319 320 323 322 323 324 324 321 322 322 322 321 319 317 315 316 316
201 195 192 189 186 184 183 183 173 168 168 163 161 161 165 167 170 170 164 159 155 157 173 328 333 334 329 326 328 328 325 324 324 324 323 322 322 322 322 323 322 320 319
196 195 191 187 186 184 183 181 178 173 160 160 162 166 168 165 164 160 156 156 153 138 2 349 341 338 336 331 327 325 325 323 321 320 321 323 323 322 324 323 323 321 320
189 188 188 186 184 181 176 170 171 162 158 164 168 166 164 164 163 162 160 158 152 111 41 357 349 341 333 329 329 329 328 326 327 329 328 325 324 325 324 323 324 322 320
186 185 185 182 178 176 173 172 168 161 160 167 167 166 167 168 167 162 156 156 130 93 45 13 0 352 350 345 339 336 335 333 330 328 327 327 327 326 324 325 327 323 321
182 182 182 179 177 174 174 173 164 159 165 167 167 167 168 167 169 164 151 135 94 56 35 17 5 355 347 341 337 332 328 323 324 325 324 323 325 326 328 328 323 318 317
183 181 178 179 175 173 172 166 161 165 169 171 172 171 170 171 169 154 133 105 70 40 16 0 353 346 341 337 333 329 327 326 325 325 323 324 326 325 323 322 321 319 318
182 179 175 173 173 171 166 162 164 168 171 172 173 172 168 166 159 137 100 66 31 6 355 346 339 336 331 328 326 324 323 322 319 319 320 321 321 320 319 320 320 318 317
181 179 175 173 172 169 166 165 168 172 173 173 170 168 165 156 139 107 47 13 356 346 338 332 329 328 326 324 323 322 319 317 316 316 316 317 318 317 316 317 317 317 316
182 178 176 174 170 168 168 169 169 170 170 169 168 164 156 148 127 36 354 343 337 330 326 324 322 321 320 318 318 317 315 315 314 313 313 313 313 313 312 314 316 317 315
180 178 174 172 170 169 169 169 167 167 169 170 169 166 164 169 279 330 329 326 323 320 318 317 317 316 315 314 314 314 313 312 310 309 308 309 310 310 309 309 311 314 314